Satellite-Ground Cal/Val Site Overpasses Predictions

Prediction of Satellite NPP Overpassing Cal/Val Site: Antarctic Dome C

Ground Cal/Val Site Location: Latitude: -75.10, Longitude: 123.35; Satellite-Ground Site NADIR distance within 100 km.

Table of predicted overpasses for the next 14.0 days since TLE Epoch: 12/19/2020
Interval Starting Time Ending Time Minimum Distance Time Minimum Distance (km)
1 12/20/2020 07:30:59 12/20/2020 07:31:28 12/20/2020 07:31:13 3.17
2 12/23/2020 14:54:26 12/23/2020 14:54:55 12/23/2020 14:54:41 19.42
3 12/24/2020 14:35:45 12/24/2020 14:35:59 12/24/2020 14:35:52 87.58
4 12/25/2020 07:37:18 12/25/2020 07:37:45 12/25/2020 07:37:31 35.85
5 12/26/2020 07:18:32 12/26/2020 07:18:51 12/26/2020 07:18:41 74.34
6 12/28/2020 15:00:47 12/28/2020 15:01:11 12/28/2020 15:00:59 56.60
7 12/29/2020 14:41:57 12/29/2020 14:42:22 12/29/2020 14:42:10 52.47
8 12/30/2020 07:43:38 12/30/2020 07:43:58 12/30/2020 07:43:48 71.19
